[[{"header":{"parameterUnit":"m.s-1","parameterCategory":1,"la1":30.2991,"la2":30.254,"lo1":-89.0895,"lo2":-89.0444,"dy":0.0017,"dx":0.0017,"nx":28,"ny":28,"refTime":"2024-06-18T03:00:00:Z","depth":0,"parameterNumber":2,"parameterNumberName":"U-component_of_WINDS"},"data":[0,0,0,0,0,0,0,0,0,0,0,0,0,0,0,0,0,0,0,0,0,0,0,0,0,0,0,0,0,0,0,0,0,0,0,0,0,0,0,0,0,0,0,0,0,0,0,0,0,0,0,0,0,0,0,0,0,0,-5.8505,-5.8505,0,-5.8509,-5.8509,-5.8509,-5.8303,-5.8298,-5.8292,-5.8287,-5.8293,-5.8298,-5.8304,0,0,0,0,0,0,0,0,0,0,0,0,0,-5.8318,-5.8323,-5.8505,-5.8505,-5.8505,-5.8509,-5.8509,-5.8509,-5.8304,-5.8297,-5.8291,-5.8284,-5.8292,-5.8298,-5.8304,0,0,0,0,0,0,0,0,0,0,0,0,0,-5.8369,-5.8324,-5.8505,-5.8403,-5.8394,-5.8509,-5.8509,-5.8509,-5.8305,-5.8297,-5.8289,-5.8281,-5.8289,-5.8297,-5.8305,-5.8519,0,0,-5.8329,-5.8333,0,0,0,0,0,0,0,0,-5.8366,-5.8376,-5.8418,-5.841,-5.84,-5.8397,-5.8446,-5.8513,-5.8308,-5.8339,-5.8287,-5.8277,-5.8335,-5.8338,-5.8357,-5.8519,-5.8519,-5.833,-5.8335,-5.8338,-5.834,0,0,0,0,0,0,0,-5.8363,-5.8375,-5.8506,-5.8419,-5.8408,-5.8357,-5.8355,-5.8457,-5.8383,-5.8336,-5.8321,-5.8324,-5.8328,-5.835,-5.8356,-5.8519,-5.833,-5.8337,-5.8342,-5.8345,-5.8854,-5.8863,0,0,0,0,0,0,-5.8373,-5.8373,-5.8506,-5.8507,-5.8363,-5.8367,-5.8365,-5.8406,-5.8381,-5.837,-5.8331,-5.8314,-5.8341,-5.8347,-5.8355,-5.8602,-5.8338,-5.8345,-5.835,-5.8846,-5.8856,-5.8866,0,0,0,0,0,0,-5.837,-5.8387,-5.8506,-5.8436,-5.8447,-5.8379,-5.8427,-5.8411,-5.8432,-5.8378,-5.8363,-5.8367,-5.8334,-5.8344,-5.8479,-5.8599,-5.8349,-5.8356,-5.8835,-5.8849,-5.8861,-5.9098,0,0,0,0,0,0,-5.8366,-5.8387,-5.8468,-5.8439,-5.8452,-5.863,-5.8435,-5.8417,-5.8446,-5.8425,-5.8408,-5.8397,-5.8329,-5.8468,-5.8487,-5.8606,-5.8362,-5.8824,-5.8841,-5.8857,-5.908,-5.9118,-5.9151,0,0,0,0,0,-5.836,-5.8535,-5.8473,-5.849,-5.8551,-5.8638,-5.8645,-5.8562,-5.8457,-5.8537,-5.8502,-5.8398,-5.8584,-5.8484,-5.8503,-5.8626,-5.8816,-5.8836,-5.8856,-5.9063,-5.9111,-5.915,0,0,0,0,0,0,-5.8581,-5.853,-5.846,-5.8631,-5.864,-5.8603,-5.8701,-5.8615,-5.8654,-5.8632,-5.8528,-5.8526,-5.8677,-5.8665,-5.8555,-5.883,-5.8681,-5.8706,-5.8833,-5.8877,-5.8912,-5.8911,-5.8369,0,0,0,0,0,-5.8649,-5.8724,-5.8675,-5.8831,-5.8839,-5.877,-5.8805,-5.874,-5.8746,-5.8748,-5.8723,-5.8732,-5.8792,-5.8834,-5.8887,-5.9077,-5.907,-5.9171,-5.9207,-5.9237,-5.9259,-5.9357,-5.9401,-5.8931,-5.8931,-5.893,0,0,-5.8792,-5.8773,-5.8827,-5.8875,-5.8874,-5.8954,-5.8775,-5.8867,-5.8924,-5.8762,-5.8887,-5.887,-5.8873,-5.9036,-5.9107,-5.9031,-5.9387,-5.9262,-5.9286,-5.9292,-5.9382,-5.9426,-5.9466,-5.8944,-5.8942,-5.894,0,0,-5.9091,-5.9086,-5.9213,-5.9216,-5.9217,-5.917,-5.9201,-5.9177,-5.9158,-5.9282,-5.9162,-5.9229,-5.9336,-5.9342,-5.936,-5.9662,-5.9567,-5.9682,-5.9869,-5.9966,-6.0003,-6.0035,-6.0141,-6.018,-5.9705,-5.9705,-5.9706,0,-5.9268,-5.9382,-5.9291,-5.939,-5.9414,-5.9271,-5.94,-5.9407,-5.9426,-5.9446,-5.9361,-5.949,-5.9482,-5.9644,-5.9718,-5.9738,-5.9769,-5.9683,-6.0005,-6.0036,-6.0065,-6.0165,-6.0205,-5.9719,-5.9718,-5.9716,-5.9715,0,-5.9599,-5.968,-5.9784,-5.9804,-5.984,-5.9954,-5.9879,-5.9927,-5.986,-5.9822,-5.9949,-5.9936,-5.9982,-6.0016,-5.9952,-6.0169,-6.0121,-6.0023,-5.987,-6.0125,-6.0217,-6.0255,-5.9739,-5.9734,-5.973,-5.9726,0,0,-6.0037,-6.0004,-6.0044,-6.005,-6.0041,-6.0102,-6.0209,-6.0254,-6.0296,-6.0314,-6.0401,-6.0494,-6.0402,-6.0422,-6.0357,-6.0443,-6.0681,-6.0332,-6.0331,-6.0396,-6.0917,-6.099,-6.1036,-6.0618,-6.0625,-6.0631,-6.0916,0,-6.0325,-6.0505,-6.0426,-6.0614,-6.0687,-6.0553,-6.0646,-6.065,-6.0618,-6.0675,-6.0639,-6.0706,-6.058,-6.0591,-6.067,-6.0635,-6.0784,-6.0614,-6.0697,-6.0701,-6.0698,-6.1084,-6.1162,-6.1432,-6.0952,-6.0958,-6.0962,0,-6.0686,-6.0717,-6.0913,-6.0889,-6.0917,-6.1002,-6.1035,-6.1093,-6.1095,-6.1065,-6.1088,-6.1003,-6.1106,-6.0957,-6.1097,-6.0983,-6.1013,-6.1001,-6.1009,-6.1012,-6.0846,-6.1096,-6.1516,-6.1556,-6.1018,-6.1014,-6.101,0,-6.0983,-6.1075,-6.1203,-6.1213,-6.1189,-6.1252,-6.1245,-6.1239,-6.127,-6.13,-6.1319,-6.1362,-6.1385,-6.142,-6.1349,-6.1247,-6.1499,-6.1343,-6.1476,-6.1478,-6.1533,-6.1531,-6.1963,-6.1557,-6.1557,-6.1556,-6.1555,0,-6.1312,-6.1437,-6.1336,-6.1415,-6.155,-6.1458,-6.1594,-6.1572,-6.1568,-6.164,-6.1528,-6.1598,-6.1501,-6.1562,-6.1507,-6.1631,-6.1643,-6.1621,-6.1604,-6.163,-6.1632,-6.1646,-6.1625,-6.1566,-6.1564,-6.1562,-6.156,0,-6.1666,-6.1604,-6.1734,-6.17,-6.1695,-6.1796,-6.1767,-6.1838,-6.1798,-6.1891,-6.1907,-6.1844,-6.191,-6.1843,-6.1905,-6.1868,-6.2033,-6.1991,-6.2032,-6.202,-6.2155,-6.2143,-6.2609,-6.2665,-6.2227,-6.2231,-6.2235,0,-6.188,-6.1972,-6.1948,-6.1987,-6.1987,-6.2053,-6.2084,-6.1997,-6.2034,-6.2043,-6.2114,-6.2169,-6.2209,-6.232,-6.228,-6.2327,-6.2283,-6.2444,-6.2289,-6.2311,-6.2283,-6.2277,-6.2285,-6.2474,-6.248,-6.2484,-6.2487,0,-6.2264,-6.2228,-6.2277,-6.2316,-6.2356,-6.2382,-6.24,-6.2439,-6.2349,-6.2397,-6.2462,-6.2493,-6.2555,-6.2612,-6.2646,-6.2638,-6.2549,-6.2537,-6.2569,-6.2595,-6.2614,-6.2603,-6.2116,-6.2526,-6.2522,-6.2519,-6.2517,-6.2515,-6.2552,-6.2627,-6.2621,-6.2679,-6.2683,-6.2702,-6.2767,-6.2735,-6.2787,-6.283,-6.2776,-6.2857,-6.2855,-6.2892,-6.2895,-6.2956,-6.2888,-6.2937,-6.2948,-6.2961,-6.298,-6.2607,-6.2963,-6.2962,-6.2961,-6.296,-6.2959,0,-6.2928,-6.2918,-6.2972,-6.3,-6.3046,-6.2957,-6.2971,-6.3015,-6.3087,-6.3094,-6.3135,-6.3209,-6.3264,-6.3228,-6.3274,-6.333,-6.329,-6.3345,-6.3339,-6.3338,-6.3039,-6.3005,-6.3377,-6.3376,-6.3376,-6.3376,-6.3376,-6.3376,-6.3129,-6.3251,-6.3215,-6.3337,-6.3325,-6.3402,-6.3418,-6.3435,-6.3439,-6.3527,-6.3571,-6.3547,-6.3537,-6.3581,-6.3627,-6.3615,-6.3636,-6.3706,-6.368,-6.3401,-6.3359,-6.332,-6.3287,-6.3712,-6.3712,-6.3972,-6.3975,-6.3977]},{"header":{"parameterUnit":"m.s-1","parameterCategory":1,"la1":30.2991,"la2":30.254,"lo1":-89.0895,"lo2":-89.0444,"dy":0.0017,"dx":0.0017,"nx":28,"ny":28,"refTime":"2024-06-18T03:00:00:Z","depth":0,"parameterNumber":3,"parameterNumberName":"V-component_of_WINDS"},"data":[0,0,0,0,0,0,0,0,0,0,0,0,0,0,0,0,0,0,0,0,0,0,0,0,0,0,0,0,0,0,0,0,0,0,0,0,0,0,0,0,0,0,0,0,0,0,0,0,0,0,0,0,0,0,0,0,0,0,-0.0829,-0.0829,0,-0.0776,-0.0775,-0.0775,-0.0866,-0.087,-0.0873,-0.0876,-0.0817,-0.0813,-0.0808,0,0,0,0,0,0,0,0,0,0,0,0,0,-0.1005,-0.1001,-0.0829,-0.0829,-0.0828,-0.0776,-0.0775,-0.0774,-0.0866,-0.087,-0.0873,-0.0877,-0.0818,-0.0813,-0.0808,0,0,0,0,0,0,0,0,0,0,0,0,0,-0.0937,-0.1,-0.0829,-0.0867,-0.087,-0.0776,-0.0775,-0.0774,-0.0865,-0.087,-0.0874,-0.0879,-0.082,-0.0814,-0.0807,-0.0672,0,0,-0.0787,-0.0784,0,0,0,0,0,0,0,0,-0.0941,-0.0931,-0.0862,-0.0865,-0.0868,-0.0833,-0.0816,-0.074,-0.0864,-0.0867,-0.0876,-0.0881,-0.0818,-0.0812,-0.0791,-0.0669,-0.0667,-0.0786,-0.0782,-0.0779,-0.0777,0,0,0,0,0,0,0,-0.0946,-0.0934,-0.0808,-0.0861,-0.0864,-0.0885,-0.0881,-0.0802,-0.0817,-0.0867,-0.0874,-0.0866,-0.082,-0.0798,-0.0791,-0.0666,-0.0786,-0.078,-0.0776,-0.0773,-0.0426,-0.0421,0,0,0,0,0,0,-0.0946,-0.0937,-0.081,-0.0807,-0.0917,-0.0878,-0.0873,-0.0839,-0.0818,-0.0819,-0.0862,-0.0871,-0.0807,-0.0798,-0.0789,-0.0626,-0.0779,-0.0773,-0.0769,-0.0431,-0.0425,-0.0419,0,0,0,0,0,0,-0.095,-0.0934,-0.0812,-0.0873,-0.086,-0.087,-0.0831,-0.0836,-0.0813,-0.0814,-0.0817,-0.0837,-0.081,-0.0798,-0.07,-0.0626,-0.077,-0.0764,-0.0437,-0.0429,-0.0422,-0.0302,0,0,0,0,0,0,-0.0954,-0.0935,-0.0885,-0.0872,-0.0856,-0.0725,-0.0827,-0.0831,-0.0802,-0.0812,-0.0791,-0.0792,-0.0813,-0.0709,-0.0693,-0.0619,-0.0758,-0.0444,-0.0433,-0.0424,-0.0312,-0.0291,-0.0272,0,0,0,0,0,-0.096,-0.0854,-0.0882,-0.0866,-0.0794,-0.0721,-0.0711,-0.0739,-0.0796,-0.0744,-0.0745,-0.0793,-0.0637,-0.0698,-0.0681,-0.0604,-0.0448,-0.0436,-0.0425,-0.0321,-0.0295,-0.0273,0,0,0,0,0,0,-0.0858,-0.0853,-0.0884,-0.0771,-0.0745,-0.0736,-0.0673,-0.0711,-0.0668,-0.0679,-0.0714,-0.0708,-0.0601,-0.0593,-0.0662,-0.047,-0.0552,-0.0536,-0.0479,-0.0454,-0.0434,-0.0437,-0.0753,0,0,0,0,0,-0.0822,-0.0764,-0.0762,-0.0662,-0.0648,-0.0662,-0.0631,-0.0654,-0.0629,-0.0618,-0.0612,-0.0584,-0.0529,-0.0491,-0.0441,-0.0312,-0.0307,-0.025,-0.023,-0.0214,-0.0199,-0.0126,-0.01,-0.038,-0.0381,-0.0381,0,0,-0.0747,-0.0737,-0.0699,-0.0641,-0.0624,-0.0561,-0.0652,-0.0583,-0.0535,-0.0608,-0.0513,-0.0507,-0.0478,-0.0363,-0.0312,-0.0352,-0.012,-0.0199,-0.0186,-0.018,-0.0111,-0.0084,-0.0061,-0.0372,-0.0374,-0.0375,0,0,-0.0578,-0.0566,-0.0479,-0.046,-0.0434,-0.0444,-0.0422,-0.0407,-0.0405,-0.0312,-0.0363,-0.0307,-0.0212,-0.0188,-0.0163,0.0019,-0.0022,0.0036,0.0142,0.0213,0.0235,0.0255,0.0324,0.0348,0.005,0.0051,0.0051,0,-0.0488,-0.0397,-0.043,-0.0355,-0.0326,-0.039,-0.03,-0.0279,-0.0237,-0.0214,-0.0262,-0.0141,-0.0126,-0.0004,0.0041,0.0061,0.0087,0.0035,0.0234,0.0254,0.0271,0.0337,0.0362,0.0058,0.0057,0.0056,0.0056,0,-0.0285,-0.022,-0.0153,-0.011,-0.0074,0.0007,-0.0011,0.003,0.0004,0.0,0.0099,0.0115,0.0169,0.0196,0.0171,0.0316,0.029,0.024,0.0157,0.0306,0.0367,0.0391,0.0068,0.0066,0.0064,0.0062,0,0,-0.005,-0.0025,0.0001,0.0021,0.0047,0.0098,0.0178,0.0231,0.0268,0.03,0.0369,0.0452,0.0407,0.0435,0.0412,0.0475,0.0623,0.0417,0.0417,0.0458,0.0789,0.0829,0.0858,0.0595,0.0599,0.0603,0.0787,0,0.0121,0.0259,0.0233,0.0368,0.043,0.0372,0.0443,0.0468,0.0467,0.0521,0.052,0.0581,0.0514,0.0531,0.059,0.0593,0.069,0.0578,0.0662,0.0666,0.066,0.0889,0.0932,0.1105,0.0811,0.0814,0.0817,0,0.0339,0.038,0.0522,0.0541,0.0566,0.063,0.0678,0.0729,0.0758,0.0753,0.0786,0.0753,0.0836,0.0751,0.0867,0.0793,0.0825,0.0832,0.0838,0.0847,0.0753,0.0908,0.1159,0.1186,0.0854,0.0851,0.0848,0,0.0501,0.0591,0.0689,0.0707,0.0732,0.0779,0.0791,0.0815,0.085,0.0892,0.0915,0.0967,0.0997,0.1039,0.1022,0.0961,0.1144,0.1056,0.1145,0.1146,0.1188,0.1186,0.1451,0.1204,0.1203,0.1203,0.1202,0,0.0697,0.0787,0.0762,0.0823,0.0923,0.0893,0.0994,0.1,0.1022,0.1085,0.1037,0.1097,0.107,0.1129,0.1116,0.1217,0.123,0.123,0.1227,0.1237,0.1237,0.126,0.1249,0.121,0.1208,0.1207,0.1206,0,0.0895,0.0882,0.0985,0.1,0.1007,0.108,0.1094,0.1152,0.1148,0.1228,0.1245,0.124,0.1307,0.1294,0.1368,0.136,0.1487,0.1466,0.1478,0.1474,0.1566,0.1559,0.1857,0.1896,0.1621,0.1623,0.1625,0,0.1022,0.109,0.1114,0.1152,0.1168,0.123,0.1265,0.1239,0.1279,0.1319,0.1373,0.1436,0.1485,0.1596,0.16,0.1658,0.1641,0.1741,0.1649,0.1658,0.1647,0.1644,0.1653,0.176,0.1764,0.1766,0.1768,0,0.1251,0.1242,0.1294,0.1346,0.139,0.1429,0.1464,0.1499,0.1476,0.1523,0.1591,0.163,0.1706,0.1771,0.1825,0.184,0.1803,0.1797,0.1821,0.1834,0.1839,0.1842,0.1531,0.1791,0.1788,0.1787,0.1786,0.1785,0.142,0.1479,0.1506,0.1567,0.1591,0.1626,0.1682,0.1685,0.1742,0.1802,0.1783,0.1862,0.1893,0.1961,0.1983,0.2046,0.2009,0.2043,0.2052,0.2062,0.2075,0.1827,0.2055,0.2054,0.2054,0.2053,0.2053,0,0.1649,0.1664,0.172,0.1771,0.1821,0.1779,0.1816,0.1861,0.1931,0.1962,0.2012,0.2093,0.2156,0.2166,0.2226,0.2275,0.226,0.2293,0.229,0.2296,0.2103,0.2078,0.2305,0.2304,0.2304,0.2304,0.2304,0.2304,0.1774,0.1874,0.1869,0.1981,0.1995,0.2072,0.2098,0.2131,0.2156,0.2248,0.23,0.2305,0.2329,0.2392,0.2449,0.2451,0.2477,0.2518,0.2513,0.2333,0.2308,0.2285,0.2261,0.2523,0.2523,0.27,0.2702,0.2703]}]]